Location: İstanbul
(41.0082°N, 28.9784°E)
Time: 19:51:31
(UTC+03:00)

NOAA 15 - Pass Details

Date: 27 April 2024
Orbit: 795 x 811 km, 98.6° (Epoch: 22 May)

Event Time Altitude Azimuth Distance (km) Brightness Sun altitude
Rises 20:46:11 0° 195° (SSW) 3,303 7.6 -9.3°
Reaches altitude 10° 20:48:50 10° 207° (SSW) 2,375 7.0 -9.7°
Maximum altitude 20:53:16 28° 265° (W) 1,484 6.7 -10.5°
Drops below altitude 10° 20:57:43 10° 323° (NW) 2,380 8.2 -11.2°
Sets 21:00:24 0° 335° (NNW) 3,313 8.8 -11.6°
